AirNav   Duncan Aviation - Near you to keep you flying
 
 1757 users online  

CT59 Good Hill Farm Airport
Roxbury, Connecticut, USA

GOING TO ROXBURY?


FAA INFORMATION EFFECTIVE 01 DECEMBER 2022

Location

FAA Identifier: CT59
Lat/Long: 41-33-12.0500N 073-15-40.4300W
41-33.200833N 073-15.673833W
41.5533472,-73.2612306
(estimated)
Elevation: 951 ft. / 290 m (estimated)
Variation: 14W (1985)
From city: 3 miles E of ROXBURY, CT
Time zone: UTC -5 (UTC -4 during Daylight Saving Time)
Zip code: 06783

Airport Operations

Airport use: Private use. Permission required prior to landing
Activation date: 02/1972
Control tower: no
ARTCC: NEW YORK CENTER
FSS: BRIDGEPORT FLIGHT SERVICE STATION
Attendance: UNATNDD
Wind indicator: yes
Segmented circle: no

Airport Communications

WX AWOS-3PT at OXC (7 nm SE): 132.975 (203-262-1190)
WX ASOS at DXR (15 nm SW): 127.75 (203-791-8227)
WX ASOS at MMK (20 nm E): 134.925 (203-639-9405)

Nearby radio navigation aids

VOR radial/distance  VOR name  Freq  Var
PWLr142/20.0PAWLING VOR/DME114.3012W
CMKr053/21.8CARMEL VOR/DME116.6012W
BDRr357/24.4BRIDGEPORT VOR/DME108.8012W
IGNr117/26.1KINGSTON VOR/DME117.6012W
MADr312/29.4MADISON VOR/DME110.4013W
HFDr274/32.5HARTFORD VOR/DME114.9013W

 
NDB name  Hdg/Dist  Freq  Var  ID
STANWYCK100/35.226112WSKU ... -.- ..-

Airport Services

Airframe service: NONE
Powerplant service: NONE

Runway Information

Runway N/S

Dimensions: 2700 x 200 ft. / 823 x 61 m
Surface: turf
RUNWAY N  RUNWAY S
Traffic pattern: leftleft
Obstructions: treestrees

Airport Ownership and Management from official FAA records

Ownership: Privately-owned
Owner: GOOD HILL FARM, LLC
415 MAIN STREET NORTH, P.O. BOX 579
BETHLEHEM, CT 06751
Phone 203-266-5221
Manager: CONNIE SHERMAN
415 MAIN STREET NORTH, P.O. BOX 579
BETHLEHEM, CT 06751
Phone 203-266-5221

Airport Operational Statistics

Aircraft based on the field: 2
Single engine airplanes: 2
    

Additional Remarks

OWNER DOES DESIRE ARPT TO BE CHARTED.
FOR CD CTC NEW YORK APCH AT 516-683-2449.

Instrument Procedures

There are no published instrument procedures at CT59.

Some nearby airports with instrument procedures:

KOXC - Waterbury-Oxford Airport (7 nm SE)
KDXR - Danbury Municipal Airport (15 nm SW)
4B8 - Robertson Field Airport (20 nm NE)
KMMK - Meriden Markham Municipal Airport (20 nm E)
44N - Sky Acres Airport (23 nm NW)
 
Loc | Ops | Rwys | IFR | FBO | Links
Com | Nav | Svcs | Stats | Notes

Silver City Flying Club
 
Area around CT59 (Good Hill Farm Airport)
 
Road maps at: MapQuest Bing Google
 
Aerial photo
No photo
 
Sectional chart

 
Airport distance calculator
Flying to Good Hill Farm Airport? Find the distance to fly.

From to CT59

Sunrise and sunset
Times for 08-Dec-2022
 Local
(UTC-5)
 Zulu
(UTC)
Morning civil twilight06:3711:37
Sunrise07:0812:08
Sunset16:2221:22
Evening civil twilight16:5321:53

Current date and time
Zulu (UTC)  08-Dec-2022 16:58:57
Local (UTC-5)  08-Dec-2022 11:58:57
 
METAR
KOXC 
8nm SE 
081651Z 33009G18KT 10SM OVC035 09/02 A3019 RMK AO2 SLP239 T00890017
KDXR 
15nm SW 
081653Z 33008KT 10SM BKN041 11/02 A3022 RMK AO2 SLP233 T01060017
KMMK 
19nm E 
081653Z AUTO 33010G18KT 10SM SCT046 12/01 A3019 RMK AO2 SLP222 T01170006
TAF
KBDR 
24nm S 
081434Z 0815/0912 34012G22KT P6SM SCT035 SCT250 FM082100 33011KT P6SM SCT250 FM090300 36007KT P6SM SCT250
KPOU 
28nm W 
081148Z 0812/0912 VRB03KT P6SM FEW040 FEW250 TEMPO 0812/0814 2SM BR FM081500 34010KT P6SM SCT040 FM090300 36004KT P6SM SKC
NOTAMs
Click for the latest NOTAMs
NOTAMs are issued by the DoD/FAA and will open in a separate window not controlled by AirNav.

 

 
 

Would you like to see your business listed on this page?

 If your business provides an interesting product or service to pilots, flight crews, aircraft, or users of the Good Hill Farm Airport, you should consider listing it here.  To start the listing process, click on the button below
 
Add a business
 

Other Pages about Good Hill Farm Airport

Update a link
 
Copyright © AirNav, LLC. All rights reserved. Privacy Policy  Contact